[ ตารางข้อมูล ] [ Min-Max ] [ วันนี้2 ] [ วันนี้4 ] [ เทียบ-A 3วัน ] [ เทียบ-B 4วัน ]   

วันนี้4   [ ◀ ช่วงเก่ากว่า ] [ ช่วงที่ 30 ] [ ช่วงใหม่กว่า ▶ ] [ ล่าสุด ]    [ 3 ชั่วโมง ] [ 6 ชั่วโมง ] [ 12 ชั่วโมง ] [ 24 ชั่วโมง ]   วันนี้4

อุณภูมิในตู้ Knockdown4529  ราย 24 ชั่วโมง  ที่วัดได้ ในช่วงวันเวลา 03/08/2026 (06:08) ถึง 04/08/2026 (06:08) 
ความชื้นในตู้ Knockdown4529  ราย 24 ชั่วโมง  ที่วัดได้ ในช่วงวันเวลา 03/08/2026 (06:08) ถึง 04/08/2026 (06:08) 
การใช้ไฟฟ้าในตู้ Knockdown4529  ราย 24 ชั่วโมง  ที่วัดได้ ในช่วงวันเวลา 03/08/2026 (06:08) ถึง 04/08/2026 (06:08) 

  DS18B20SHTC3PZEM-004TWiFi 
IDDate d/m/Y & Timedata1
สูง
data2
ต่ำ
data3
นอก
temp
pcb
hum
pcb
VoltAmpWattrssiTime
 9395  04/08/2026 06:06:29  28.4  28.5  26.4  29.5  67.9  227.7  0.04  4.4  -77  06:06 
 9394  04/08/2026 06:01:34  28.4  28.5  26.4  29.8  67.7  227.2  0.04  4.4  -77  06:01 
 9393  04/08/2026 05:56:49  28.4  28.5  26.3  29.6  67.5  229.5  0.04  4.4  -77  05:56 
 9392  04/08/2026 05:51:51  28.4  28.5  26.2  29.6  67.8  225.9  0.04  4.4  -75  05:51 
 9391  04/08/2026 05:43:47  28.4  28.6  26.5  29.6  68.1  222.4  0.04  4.4  -78  05:43 
 9390  04/08/2026 05:38:48  28.4  28.6  26.5  29.6  68.0  229.2  0.04  4.4  -77  05:38 
 9389  04/08/2026 05:33:39  28.4  28.6  26.2  29.6  68.0  230.9  0.04  4.3  -75  05:33 
 9388  04/08/2026 05:28:43  28.4  28.6  26.3  29.6  68.1  231.8  0.04  4.4  -76  05:28 
 9387  04/08/2026 05:23:45  28.4  28.6  26.4  29.7  68.0  230.0  0.04  4.4  -78  05:23 
 9386  04/08/2026 05:18:51  28.4  28.6  26.5  29.6  68.2  231.6  0.04  4.4  -77  05:18 
 9385  04/08/2026 05:13:29  28.5  28.6  26.5  29.7  68.2  231.6  0.04  4.4  -78  05:13 
 9384  04/08/2026 05:08:47  28.5  28.6  26.5  29.7  68.2  230.5  0.04  4.4  -76  05:08 
 9383  04/08/2026 05:03:40  28.5  28.6  26.5  29.6  68.1  230.3  0.04  4.4  -77  05:03 
 9382  04/08/2026 04:58:52  28.6  28.6  26.6  29.8  68.3  232.0  0.04  4.4  -77  04:58 
 9381  04/08/2026 04:53:58  28.6  28.7  26.5  29.6  68.3  228.7  0.04  4.4  -77  04:53 
 9380  04/08/2026 04:48:52  28.6  28.7  26.5  29.7  68.3  231.8  0.04  4.4  -75  04:48 
 9379  04/08/2026 04:44:08  28.6  28.7  26.5  29.6  68.2  230.3  0.04  4.4  -76  04:44 
 9378  04/08/2026 04:39:22  28.6  28.7  26.6  29.8  68.1  232.0  0.04  4.4  -74  04:39 
 9377  04/08/2026 04:34:35  28.6  28.7  26.7  29.7  68.0  229.7  0.04  4.4  -76  04:34 
 9376  04/08/2026 04:29:38  28.6  28.8  26.8  29.6  68.2  231.9  0.04  4.4  -74  04:29 
 9375  04/08/2026 04:24:26  28.6  28.8  26.7  29.8  68.1  230.2  0.04  4.4  -76  04:24 
 9374  04/08/2026 04:19:31  28.6  28.8  26.8  29.9  68.2  231.5  0.04  4.4  -76  04:19 
 9373  04/08/2026 04:14:22  28.6  28.8  27.0  29.7  68.2  228.9  0.04  4.4  -78  04:14 
 9372  04/08/2026 04:09:06  28.7  28.8  26.9  29.9  68.1  231.8  0.04  4.4  -76  04:09 

Data every 5 minute.


ใช้เวลาประมวลผล 0.04357 วินาที